Location: Newark
(12.5331°N, 56.4669°W)
Time: 12:40:09
(UTC+00:00)

LightSail 2 - Pass Details

Date: 26 January 2020
Orbit: 698 x 723 km, 24.0° (Epoch: 24 February)

Event Time Altitude Azimuth Distance (km) Brightness Sun altitude
Rises 22:59:35 0° 299° (WNW) 3,073 9.1 -18.3°
Reaches altitude 10° 23:02:08 10° 307° (NW) 2,159 8.1 -18.9°
Maximum altitude 23:06:54 40° 16° (NNE) 1,034 5.7 -20.0°
Enters shadow 23:07:43 37° 39° (NE) 1,084 5.7 -20.2°
